SL-16 DEB

Satellite information

Favourite Embed

Satellite Type and Status

DEBRISIN ORBIT

Key statistics

Satellite SL-16 DEB at a glance.

Uptime

11989

Days in orbit

Revolutions

≈ 14.1

Per day

Orbit

LEO

Low Earth Orbit

Inclination

71.3

Latest

Satellite identification and parameters

Extended collection of information and parameters for SL-16 DEB.

Object identification

Identified? True

Debris? True

Object name: SL-16 DEB

International designator: 1992-093FP

Object number (NORAD): 22474

Object ID (CCSDS): 22474

Country: COMMONWEALTH OF INDEPENDENT STATES (CIS)

Current information (Y/N): Y

RCS size: SMALL

Orbital parameters

Period: 101.837 minutes

Inclination: 71.3012 deg

SMA: 7223.756 km

Apoapsis: 950.271 km

Periapsis: 740.971 km

RAAN: 35.2165 deg

Eccentricy: 0.0144869

Argument of periapsis: 164.517 deg

Mean anomaly: 196.0459 deg

Mean motion: 14.14028475 rev/day

Mean motion (dot): 0.0000953 rev/day2

B* drag term: 0.0045477 1/REarth

Two-line elements (TLE)

Creation date: Oct. 22, 2025, 12:06 a.m.

Reference frame: TEME

Reference center: EARTH

Epoch: Oct. 21, 2025, 4:20 p.m. UTC

TLE line 0: 0 SL-16 DEB

TLE line 1: 1 22474U 92093FP 25294.68061066 .00009530 00000-0 45477-2 0 9993

TLE line 2: 2 22474 71.3012 35.2165 0144869 164.5170 196.0459 14.14028475656594

Live tracking on map

Real-time ground track for satellite SL-16 DEB.

In-orbit conjunctions

A list of the most updated potential collisions computed for object SL-16 DEB.

Target Orbit TCA Probability of collision Miss distance Type
SL-16 DEB LEO 2024-09-06 18:39:02 0.0003438423 54.0 (m) DEBRIS

Associated space launch

Second generation ELING satellite

SL-16 DEB was lifted into orbit during the mission ‘Zenit-2 | Tselina-2 12’, on board a Zenit-2 space rocket.

The launch took place on Dec. 25, 1992, 5:56 a.m. from 45/1.

For more information about the launch, click the button.

Launch to space Zenit-2 | Tselina-2 12
Zenit-2 | Tselina-2 12

Agency: N/A

Status: Launch Successful

Launch date: Dec. 25, 1992, 5:56 a.m. UTC

Rocket: Zenit-2

Launch pad: 45/1

Location: Baikonur Cosmodrome, Republic of Kazakhstan

...

Latest news about this satellite

There are no fresh news available about this satellite. Check back as we update our databases every day.


Newsletter sign-up

Weekly statistics, charts and insights to help you stay on top of the space industry.